Location: São Paulo
(23.5507°S, 46.6334°W)
Time: 19:22:27
(UTC-03:00)

Vanguard 2 Rocket - Pass Details

Date: 17 February 2026
Orbit: 553 x 3286 km, 32.9° (Epoch: 11 March)

Event Time Altitude Azimuth Distance (km) Brightness Sun altitude
Exits shadow 02:21:40 40° 151° (SSE) 1,812 8.6 -43.7°
Drops below altitude 10° 02:29:27 10° 113° (ESE) 4,161 10.8 -42.5°
Sets 02:34:05 0° 107° (ESE) 5,642 11.6 -41.8°
